LA6JKA Spydeberg NO current weather conditions

sailwx.info

Wind from 079 at 0 knots gusting 5

Air temperature 18.9° C
Dewpoint 10.9° C

Last reported at 2020-Jul-10 16:01 UTC.
Time now 2020-Jul-10 17:10 UTC

Location: N 59°37' E 011°06'.
View on Google Maps.

See reports from other nearby stations

  
Tides and Currents Weather Stations Pressure Air Temp Water Temp Dewpoint Dewpoint Depression Visibility Wind Speed Wind Dir Waves Ship Positions
date/time (UTC)wind fromknots sea level pressurealtimeterstation pressurevisibilityair tempwater tempwave heightnotes
2020-Jul-10 16:01 079 0 gusting 5 18.9
2020-Jul-10 15:46 074 3 gusting 6 19.4
2020-Jul-10 15:31 040 2 gusting 6 19.4
2020-Jul-10 15:16 023 3 gusting 6 19.4
2020-Jul-10 15:00 034 0 gusting 6 19.4
2020-Jul-10 14:46 005 0 gusting 6 18.9
2020-Jul-10 14:31 030 1 gusting 5 18.9
2020-Jul-10 14:15 036 0 gusting 6 17.8
2020-Jul-10 14:00 070 4 gusting 8 17.2
2020-Jul-10 13:45 070 2 gusting 6 17.2
2020-Jul-10 13:31 021 3 gusting 6 17.2
2020-Jul-10 13:16 060 2 gusting 5 16.7
2020-Jul-10 13:00 071 0 gusting 4 16.7
2020-Jul-10 12:46 095 16.1
2020-Jul-10 12:31 199 15.6
2020-Jul-10 12:15 219 2 gusting 6 15.0
2020-Jul-10 12:00 242 2 gusting 6 14.4
2020-Jul-10 11:45 207 1 gusting 7 14.4
2020-Jul-10 11:31 239 4 gusting 9 15.0
2020-Jul-10 11:15 167 3 gusting 8 15.6
2020-Jul-10 11:00 154 5 gusting 13 16.1
2020-Jul-10 10:46 188 1 gusting 4 17.2
2020-Jul-10 10:30 066 16.7
2020-Jul-10 10:15 078 17.8
2020-Jul-10 10:00 101 4 gusting 8 18.3
2020-Jul-10 09:45 150 1 gusting 8 18.9
2020-Jul-10 09:30 139 2 gusting 6 20.0
2020-Jul-10 09:15 125 2 gusting 6 20.0
2020-Jul-10 09:00 101 0 gusting 3 19.4
2020-Jul-10 08:45 120 1 gusting 3 18.9
2020-Jul-10 08:30 072 0 gusting 3 18.9
2020-Jul-10 08:15 316 0 gusting 2 17.8
2020-Jul-10 08:00 057 0 gusting 4 17.8
2020-Jul-10 07:31 015 0 gusting 3 17.2
2020-Jul-10 07:16 005 16.7
2020-Jul-10 07:01 322 0 gusting 3 16.1
2020-Jul-10 06:48 100 16.1
2020-Jul-10 06:32 128 15.6
2020-Jul-10 06:17 084 13.9
2020-Jul-10 06:01 124 12.8
2020-Jul-10 05:45 072 12.2
2020-Jul-10 05:31 077 11.7
2020-Jul-10 05:16 040 11.1
2020-Jul-10 05:01 110 10.6
2020-Jul-10 04:46 109 10.6
2020-Jul-10 04:30 127 10.0
2020-Jul-10 04:15 126 9.4
2020-Jul-10 04:00 126 9.4
2020-Jul-10 03:47 154 8.9
2020-Jul-10 03:30 154 8.9
2020-Jul-10 03:15 154 8.9
2020-Jul-10 03:00 154 8.9
2020-Jul-10 02:45 154 8.9
2020-Jul-10 02:30 154 8.9
2020-Jul-10 02:15 154 8.9
2020-Jul-10 02:00 155 8.3
2020-Jul-10 01:46 154 8.3
2020-Jul-10 01:30 154 8.3
2020-Jul-10 01:15 154 8.3
2020-Jul-10 01:00 154 8.9
2020-Jul-10 00:45 154 8.9
2020-Jul-10 00:30 154 8.9
2020-Jul-10 00:15 154 8.9
2020-Jul-10 00:02 154 9.4
2020-Jul-09 23:47 154 8.9
2020-Jul-09 23:31 154 9.4
2020-Jul-09 23:16 174 9.4
2020-Jul-09 23:01 175 9.4
2020-Jul-09 22:46 174 10.0
2020-Jul-09 22:31 173 10.0
2020-Jul-09 22:16 176 10.6
2020-Jul-09 22:00 178 10.6
2020-Jul-09 21:47 177 11.1
2020-Jul-09 21:31 204 11.7
2020-Jul-09 21:16 252 11.7
2020-Jul-09 21:01 252 12.2
2020-Jul-09 20:47 252 12.8
2020-Jul-09 20:31 252 13.3
2020-Jul-09 20:16 254 13.9
2020-Jul-09 20:01 251 14.4
2020-Jul-09 19:45 251 15.0
2020-Jul-09 19:30 251 15.0
2020-Jul-09 19:16 256 15.6
2020-Jul-09 19:01 256 16.1
2020-Jul-09 18:46 256 16.7
2020-Jul-09 18:30 255 17.8
2020-Jul-09 18:16 140 18.3
2020-Jul-09 18:01 148 19.4
2020-Jul-09 17:46 202 1 gusting 4 18.9
2020-Jul-09 17:31 209 0 gusting 4 18.3
2020-Jul-09 17:15 199 1 gusting 5 17.8
2020-Jul-09 17:00 186 0 gusting 6 16.1
2020-Jul-09 16:46 201 15.0
2020-Jul-09 16:31 180 1 gusting 7 15.0
2020-Jul-09 16:16 188 5 gusting 10 15.6
2020-Jul-09 16:00 229 8 gusting 13 16.1
2020-Jul-09 15:45 189 4 gusting 9 16.7
2020-Jul-09 15:31 174 2 gusting 7 17.2
2020-Jul-09 15:16 180 2 gusting 7 17.8
2020-Jul-09 15:01 277 17.8
2020-Jul-09 14:45 034 18.3
2020-Jul-09 14:32 026 0 gusting 3 18.9
2020-Jul-09 14:15 034 1 gusting 6 21.1
2020-Jul-09 14:01 337 20.6
2020-Jul-09 13:45 211 20.6
2020-Jul-09 13:31 275 19.4
2020-Jul-09 13:15 290 1 gusting 4 20.6
2020-Jul-09 13:00 119 0 gusting 3 20.6
2020-Jul-09 12:45 273 20.0
2020-Jul-09 12:30 184 19.4
2020-Jul-09 12:15 021 18.9
2020-Jul-09 12:00 316 19.4
2020-Jul-09 11:45 070 0 gusting 4 20.6
2020-Jul-09 11:30 115 3 gusting 7 19.4
2020-Jul-09 11:15 263 0 gusting 3 19.4
2020-Jul-09 11:00 083 0 gusting 3 18.9
2020-Jul-09 10:45 075 1 gusting 5 18.9
2020-Jul-09 10:30 120 2 gusting 5 18.3
2020-Jul-09 10:15 128 0 gusting 3 17.8
2020-Jul-09 10:02 127 0 gusting 2 17.2
2020-Jul-09 09:48 067 0 gusting 3 17.2
2020-Jul-09 09:31 066 0 gusting 6 16.7
2020-Jul-09 09:17 085 1 gusting 5 17.2
2020-Jul-09 09:01 084 1 gusting 6 17.2
2020-Jul-09 08:46 073 0 gusting 6 16.1
2020-Jul-09 08:31 134 15.6
2020-Jul-09 08:16 063 0 gusting 6 15.6
2020-Jul-09 08:01 091 2 gusting 6 16.1
2020-Jul-09 07:46 076 0 gusting 6 15.6
2020-Jul-09 07:31 082 1 gusting 4 14.4
2020-Jul-09 07:16 065 2 gusting 5 13.9
2020-Jul-09 07:01 073 0 gusting 5 13.9
2020-Jul-09 06:46 040 13.3
2020-Jul-09 06:30 056 12.8
2020-Jul-09 06:16 030 0 gusting 4 12.8
2020-Jul-09 06:01 350 1 gusting 5 12.8
2020-Jul-09 05:45 042 0 gusting 3 12.2
2020-Jul-09 05:31 360 0 gusting 3 11.7
2020-Jul-09 05:15 032 0 gusting 5 11.7
2020-Jul-09 05:00 049 2 gusting 7 11.7
2020-Jul-09 04:45 355 1 gusting 5 10.6
2020-Jul-09 04:30 342 9.4
2020-Jul-09 04:15 342 8.9
2020-Jul-09 04:00 342 8.3
2020-Jul-09 03:45 342 7.8
2020-Jul-09 03:30 342 7.8
2020-Jul-09 03:15 342 7.2
2020-Jul-09 03:00 327 7.2
2020-Jul-09 02:45 296 7.2
2020-Jul-09 02:30 296 7.2
2020-Jul-09 02:15 296 7.2
2020-Jul-09 02:02 296 7.2
2020-Jul-09 01:47 296 7.8
2020-Jul-09 01:31 296 8.3
2020-Jul-09 01:16 296 8.3
2020-Jul-09 01:02 280 0 gusting 3 8.9
2020-Jul-09 00:46 016 9.4
2020-Jul-09 00:31 022 9.4
2020-Jul-09 00:16 029 10.0
2020-Jul-09 00:01 043 10.6
2020-Jul-08 23:46 025 10.6
2020-Jul-08 23:31 347 11.1
2020-Jul-08 23:16 128 11.1
2020-Jul-08 23:01 054 11.1
2020-Jul-08 22:46 042 11.1
2020-Jul-08 22:30 340 2 gusting 7 10.6
2020-Jul-08 22:15 024 0 gusting 3 10.0
2020-Jul-08 22:00 010 10.0
2020-Jul-08 21:46 243 10.6
2020-Jul-08 21:31 240 10.6
2020-Jul-08 21:16 240 11.1
2020-Jul-08 21:01 240 11.7
2020-Jul-08 20:46 240 12.2
2020-Jul-08 20:30 220 12.8
2020-Jul-08 20:15 223 13.3
2020-Jul-08 20:00 214 13.9
2020-Jul-08 19:45 226 1 gusting 3 14.4
2020-Jul-08 19:32 219 15.6
2020-Jul-08 19:15 219 0 gusting 4 16.1
2020-Jul-08 19:00 235 0 gusting 4 16.1
2020-Jul-08 18:45 240 0 gusting 3 16.7
2020-Jul-08 18:30 213 17.2
2020-Jul-08 18:15 296 2 gusting 6 17.8
2020-Jul-08 18:00 193 0 gusting 6 17.8
2020-Jul-08 17:45 269 1 gusting 6 18.3
2020-Jul-08 17:30 252 2 gusting 6 18.9
2020-Jul-08 17:15 231 2 gusting 7 18.3
2020-Jul-08 17:00 223 3 gusting 8 18.3